This is the latest recevied weather packets stored in our database for station/object WC4PEM-11. If no packets are shown the sender has not sent any weather packets the latest 10 day(s).
| Time | Temp. | Humidity | Pressure | Rain* | Wind** | Luminosity | Snow |
|---|---|---|---|---|---|---|---|
| 1777949586 | 20° C | 81% | 1016.1 hPa | 0 mm | - | - | - |
| 1777949286 | 20.56° C | 81% | 1016.3 hPa | 0 mm | - | - | - |
| 1777949284 | 20.56° C | 81% | 1016.1 hPa | 0 mm | - | - | - |
| 1777948986 | 20.56° C | 81% | 1016.1 hPa | 0 mm | - | - | - |
| 1777948686 | 20.56° C | 81% | 1016.2 hPa | 0 mm | - | - | - |
| 1777948386 | 20.56° C | 80% | 1016.2 hPa | 0 mm | - | - | - |
| 1777948086 | 20.56° C | 80% | 1016 hPa | 0 mm | - | - | - |
| 1777947825 | 21.11° C | 78% | 1015.7 hPa | 0 mm | - | - | - |
| 1777947786 | 20.56° C | 80% | 1016 hPa | 0 mm | - | - | - |
| 1777947486 | 20.56° C | 79% | 1016 hPa | 0 mm | - | - | - |
| 1777947186 | 21.11° C | 79% | 1016 hPa | 0 mm | - | - | - |
| 1777946886 | 21.11° C | 79% | 1015.9 hPa | 0 mm | - | - | - |
| 1777946586 | 21.11° C | 78% | 1015.9 hPa | 0 mm | - | - | - |
| 1777946286 | 21.11° C | 78% | 1015.9 hPa | 0 mm | - | - | - |
| 1777945986 | 21.11° C | 78% | 1015.7 hPa | 0 mm | - | - | - |
| 1777945686 | 21.11° C | 78% | 1015.7 hPa | 0 mm | - | - | - |
| 1777945386 | 21.11° C | 77% | 1015.7 hPa | 0 mm | - | - | - |
| 1777945086 | 21.67° C | 77% | 1015.8 hPa | 0 mm | - | - | - |
| 1777944786 | 21.67° C | 76% | 1015.8 hPa | 0 mm | - | - | - |
| 1777944486 | 21.67° C | 76% | 1015.6 hPa | 0 mm | - | - | - |
| 1777944186 | 21.67° C | 76% | 1015.6 hPa | 0 mm | - | - | - |
| 1777943886 | 21.67° C | 75% | 1015.7 hPa | 0 mm | - | - | - |
| 1777943586 | 21.67° C | 76% | 1015.5 hPa | 0 mm | - | - | - |
| 1777943286 | 22.22° C | 75% | 1015.4 hPa | 0 mm | - | - | - |
| 1777942986 | 22.22° C | 74% | 1015.4 hPa | 0 mm | - | - | - |
* Rain latest hour (hover to see other rain measurements)
** Current wind speed in m/s (hover to see current wind gust speed)